Powrót do katalogu

STARLINK-32464

AktywnyŁącznośćVLEO
NORAD 62140·PAYLOAD·🇺🇸 United States

Wystrzelony Nov 30, 2024 z Cape Canaveral Space Force Station

Loading…

Następne Przeloty (najbliższe 24 godziny)

TLE

ŚwieżeSource: CelesTrak SupGP

Epoka: Sep 15, 2026, 03:08 UTC

1 62140C 24224B   26258.13104167  .00001998  00000+0  72378-4 0  2588
2 62140  43.0007 168.5623 0001496 272.0535 277.9255 15.27576909    13

Śledź STARLINK-32464 w czasie rzeczywistym z AllMySat

Download on the App Store